Regional Weather Roundup
Issued by NWS

Home | Current Version | Previous Version | Text Only | Print | Product List | Glossary Off
Versions: 1 2 3 4 5 6 7 8 9 10 11 12 13 14 15 16 17 18 19 20 21 22 23 24 25 26 27 28 29 30 31 32 33 34 35 36 37 38 39 40 41 42 43 44 45 46 47 48 49 50

000
ASUS43 KDMX 272107
RWRIA

WEATHER ROUNDUP FOR IOWA
NATIONAL WEATHER SERVICE DES MOINES IA
400 PM CDT SUN JUL 27 2014

NOTE: "FAIR" INDICATES FEW OR NO CLOUDS BELOW 12,000 FEET WITH NO
SIGNIFICANT WEATHER AND/OR OBSTRUCTIONS TO VISIBILITY.

* - THESE STATIONS ARE NOT NWS STATIONS...THUS NOT UNDER NWS
QUALITY CONTROL.  THEY ALSO DO NOT REPORT WEATHER SUCH
AS PRECIPITATION OR FOG.

IAZ001>003-012>014-020>022-031>034-043>046-272200-
   NORTHWEST IOWA

CITY           SKY/WX    TMP DP  RH WIND       PRES   REMARKS
CARROLL *      CLOUDY    72  57  60 NW20G30   30.07S
CHEROKEE *     CLOUDY    72  59  64 NW18G25   30.11R
DENISON *      CLOUDY    73  59  60 N16G26    30.08R
LE MARS *      PTSUNNY   75  59  57 N14G24    30.12S
ORANGE CITY *  MOSUNNY   73  55  53 NW18G25   30.12S
SHELDON *      CLOUDY    70  59  68 NW16G24   30.11R
SIOUX CITY     MOSUNNY   79  58  48 NW21G28   30.11R HX  80
SPENCER        CLOUDY    69  56  62 NW24G30   30.10R
STORM LAKE *   CLOUDY    72  61  68 NW15G25   30.11R
$$

IAZ055>058-069>071-079>083-090>094-272200-
   SOUTHWEST IOWA

CITY           SKY/WX    TMP DP  RH WIND       PRES   REMARKS
ATLANTIC *     MOSUNNY   77  59  53 NW20G30   30.07R
AUDUBON *      MOSUNNY   81  63  54 NW14G25   30.09R HX  82
CLARINDA *     SUNNY     81  57  44 NW18G24   30.07S HX  81
COUNCIL BLFS * SUNNY     79  59  50 N13G24    30.08S HX  80
CRESTON *      PTSUNNY   77  59  53 NW25G33   30.05S
HARLAN  *      MOSUNNY   75  59  57 N18G26    30.12S
LAMONI         MOSUNNY   81  57  43 NW24G31   30.02S HX  81
RED OAK *      SUNNY     81  59  47 NW14G28   30.07S HX  81
SHENANDOAH *   SUNNY     81  59  47 NW15G26   30.07F HX  81
$$

IAZ047>049-059>061-072>074-084-272200-
   CENTRAL IOWA

CITY           SKY/WX    TMP DP  RH WIND       PRES   REMARKS
AMES           SUNNY     74  58  57 NW23G35   30.02R
ANKENY *       PTSUNNY   77  57  50 NW18G29   30.01R
CHARITON *     MOSUNNY   75  57  53 NW21      30.01S
DES MOINES     PTSUNNY   77  56  48 NW22G31   30.01R
GRINNELL*      PTSUNNY   73  57  56 NW20G32   29.99S
KNOXVILLE *    PTSUNNY   77  57  50 NW23G32   29.99R
MARSHALLTOWN   MOSUNNY   73  59  61 NW23G32   29.98S
PELLA *        MOSUNNY   75  59  57 NW22      30.00S
PERRY *        PTSUNNY   73  59  60 N15G22    30.05R
$$

IAZ004>006-015-016-023>025-035-036-272200-
   NORTH CENTRAL IOWA

CITY           SKY/WX    TMP DP  RH WIND       PRES   REMARKS
ALGONA *       PTSUNNY   72  59  64 NW20G31   30.05R
CLARION *      MOSUNNY   73  59  60 NW20G29   30.02S
ESTHERVILLE    PTSUNNY   68  57  68 NW22G29   30.06S
FORT DODGE *   PTSUNNY   72  57  60 NW16G23   30.06S
MASON CITY     CLOUDY    71  60  68 NW24G32   30.00R
FOREST CITY *  CLOUDY    70  59  68 NE17G23   30.00S
IOWA FALLS *     N/A     73  57  56 NW18G29   30.01S
$$

IAZ007>011-017>019-026>030-037>042-050>054-066-272200-
   NORTHEAST IOWA

CITY           SKY/WX    TMP DP  RH WIND       PRES   REMARKS
CEDAR RAPIDS   MOSUNNY   75  58  55 NW25G33   29.91S
CHARLES CITY * PTSUNNY   72  61  68 NW14G21   29.95S
CLINTON *      PTSUNNY   75  59  57 NW21G30   29.89R
DECORAH *      PTSUNNY   73  59  60 NW17      29.90S
DUBUQUE        PTSUNNY   74  59  59 NW18      29.87S
MONTICELLO *   MOSUNNY   75  61  60 W16G26    29.89R
OELWEIN *      CLOUDY    73  59  60 NW21G32   29.93R
WATERLOO       CLOUDY    73  59  61 NW16G26   29.94R
$$

IAZ064-065-067-068-078-272200-
   EAST CENTRAL IOWA

CITY           SKY/WX    TMP DP  RH WIND       PRES   REMARKS
DAVENPORT      MOSUNNY   75  58  55 NW24G33   29.88R
IOWA CITY      PTSUNNY   76  59  55 NW21G30   29.93R
MT. PLEASANT * MOSUNNY   77  55  47 NW17G25   29.94S
MUSCATINE *    CLOUDY    77  57  50 NW18G29   29.91R
QUAD CITIES    MOSUNNY   78  56  46 NW23G36   29.86S
$$

IAZ062-063-075>077-085>089-095>099-272200-
   SOUTHEAST IOWA

CITY           SKY/WX    TMP DP  RH WIND       PRES   REMARKS
BURLINGTON     PTSUNNY   76  59  55 NW18G25   29.92R
FAIRFIELD *    PTSUNNY   75  59  57 NW20G28   29.96S
FORT MADISON * MOSUNNY   79  61  53 NW16G26   29.95R HX  80
KEOKUK *       PTSUNNY   79  61  53 NW22      29.93R HX  80
OSKALOOSA *      N/A     75  63  64 NW14G20   29.98S
CENTERVILLE *  SUNNY     77  59  53 NW17G25   30.01R
OTTUMWA        PTSUNNY   75  59  57 NW20G26   29.98R
WASHINGTON *   PTSUNNY   77  59  53 NW23G30   29.94S
$$

ABBREVIATIONS USED IN REMARKS
   TC - TEMPERATURES IN CELSIUS
  WCI - WIND CHILL INDEX
   HX - HEAT INDEX
  VSB - VISIBILITY
$$




USA.gov is the U.S. government's official web portal to all federal, state and local government web resources and services.